Lid_Strength_Index
1 1 1 1 1 1 0 0 0 0 0 -0 -0 0 0 -0 1 2 3 1 -0 -3 -2 0 2 2 2 3 3 5 9 9 8 8 9 7 8 5 4 5 4 4 4 4 2
1 1 1 1 1 1 1 1 1 0 0 0 0 0 -0 0 2 3 0 -3 -3 -3 1 2 3 3 4 4 4 7 9 8 7 7 8 7 8 7 5 6 6 5 4 4 2
1 1 1 1 2 1 1 1 1 1 0 0 0 1 0 1 3 3 -2 -3 -3 -2 1 1 2 3 5 4 5 6 8 6 7 7 6 6 7 5 6 8 7 7 5 4 3
1 1 1 1 2 1 1 1 1 1 1 0 0 1 1 1 8 1 -2 -3 -3 -0 2 2 4 5 6 6 5 8 6 6 6 6 6 6 5 6 6 7 5 5 4 4 4
1 1 1 1 1 1 2 1 1 1 1 1 1 1 1 4 4 -0 -1 -2 1 0 2 3 5 5 6 5 5 7 6 5 5 5 5 5 6 6 6 4 4 4 3 4 4
1 2 2 2 1 1 2 1 1 1 1 1 1 2 2 6 0 -1 -0 0 1 2 2 2 4 3 5 5 6 6 6 6 5 5 5 6 6 5 5 4 4 4 4 4 3
2 2 2 2 1 2 2 1 1 1 1 1 2 2 3 4 -0 -1 -0 1 1 1 3 2 2 4 4 5 4 5 7 7 6 6 6 6 7 7 5 4 5 4 4 3 3
1 2 2 2 2 2 2 1 1 2 2 2 2 1 5 -0 -1 0 -0 1 0 1 1 1 1 3 4 4 5 8 7 10 7 5 5 5 9 6 4 5 5 5 4 4 3
2 2 2 2 2 2 2 2 2 2 2 2 2 3 5 0 2 0 0 2 1 1 1 1 2 4 4 7 9 8 11 10 9 5 6 7 8 5 4 5 5 5 4 4 4
2 1 2 2 2 2 2 2 2 3 3 1 1 5 3 4 1 1 0 1 2 2 3 3 5 6 6 8 12 10 10 9 9 7 6 8 7 6 5 6 8 5 5 4 4
2 2 2 2 2 2 3 2 3 5 3 4 4 4 3 1 1 2 1 2 2 4 7 5 7 9 8 7 7 8 8 9 8 6 7 7 7 6 5 6 6 5 5 5 4
2 2 2 2 2 3 2 3 3 2 7 3 4 3 2 2 4 3 1 4 5 7 6 7 9 7 6 7 7 8 9 9 8 7 7 7 8 6 6 5 5 5 5 5 4
2 2 2 2 3 3 2 2 0 1 6 5 3 4 3 2 4 4 2 4 6 7 7 9 8 6 7 7 8 8 9 9 9 7 7 8 9 8 6 5 5 4 4 4 4
2 2 3 3 4 1 2 0 0 0 10 7 5 4 3 3 5 2 2 4 5 8 7 9 6 7 7 8 8 10 7 7 8 10 12 8 14 12 8 7 6 5 5 4 4
3 2 3 3 1 2 1 -1 -1 2 16 6 5 1 3 5 4 4 2 3 7 7 7 8 7 7 8 8 6 9 7 7 8 9 10 11 12 11 9 9 7 6 5 4 4
2 2 3 3 2 0 -0 -1 2 12 16 8 5 6 6 5 5 4 4 3 4 6 6 7 5 6 7 6 6 6 7 8 8 9 16 11 13 13 11 9 8 6 5 5 4
2 2 2 0 3 -1 -1 3 12 14 7 8 7 6 6 7 6 6 6 7 8 10 9 8 7 6 5 7 6 7 9 13 15 17 16 9 12 12 9 7 8 8 5 5 4
3 2 2 0 -1 -1 2 9 14 9 8 6 6 6 8 7 7 6 7 8 6 7 9 11 12 7 6 7 9 8 9 14 21 20 15 10 13 10 7 6 6 6 5 5 5
3 2 2 1 -1 -0 6 14 12 8 7 7 7 8 8 7 7 7 7 8 7 6 10 12 11 7 6 6 6 8 10 7 11 13 14 11 10 7 6 6 5 6 5 5 5
3 3 3 -0 -1 2 9 12 9 6 6 6 9 8 9 8 8 8 8 6 7 6 5 11 15 8 6 6 6 7 7 11 11 16 17 12 11 11 8 7 6 6 6 5 4
2 5 1 -1 0 6 12 10 8 5 5 7 8 8 8 8 8 8 8 7 6 6 5 7 10 9 7 8 9 8 9 9 9 12 17 18 12 8 8 6 6 6 6 5 5
3 8 1 0 8 7 10 8 6 6 4 6 6 6 7 7 8 8 9 7 5 5 8 6 8 13 10 7 6 7 8 8 15 14 14 15 13 6 6 5 5 5 5 5 4
5 6 1 2 10 10 7 7 6 6 6 6 7 6 6 7 9 7 7 6 5 6 7 6 9 14 12 9 7 8 8 8 8 10 14 17 13 6 6 5 5 5 5 4 4
5 10 7 5 5 7 9 8 8 5 5 5 6 5 6 7 6 8 7 7 5 6 7 6 8 10 14 11 9 10 9 8 9 15 13 13 10 8 7 6 5 5 4 4 4
5 7 6 11 9 7 7 7 8 8 5 5 6 6 7 9 8 8 7 8 6 7 6 6 10 9 8 8 8 9 9 8 9 9 12 10 9 8 6 6 5 4 4 4 4
7 7 5 7 7 8 8 8 8 7 7 7 7 6 6 8 7 9 7 8 8 7 7 6 11 10 11 9 9 10 9 8 8 8 9 9 9 6 5 5 5 5 5 5 4
3 3 5 8 8 9 9 8 7 6 6 5 6 6 7 7 6 6 6 6 6 8 8 9 11 13 14 10 11 14 11 9 8 7 8 10 8 6 6 6 5 5 4 4 4